星链-5381 (STARLINK-5381 )

导读 | 星芒AI

STARLINK-5381 是 SpaceX Starlink 卫星互联网项目中的一颗低轨卫星,属于“星链”计划的组成部分。该卫星由 SpaceX 研制并发射,旨在为全球用户提供高速互联网服务。它运行在近地轨道,具备先进通信技术,支持宽带接入。作为 Starlink 项目的一部分,STARLINK-5381 有助于扩大网络覆盖范围,提升偏远地区的网络连接能力。该卫星的发射和运行体现了 SpaceX 在商业航天和全球通信领域的领先地位。

基本信息
目录编号:
54828
目录名称:
STARLINK-5381
国际标识:
2022-177J
轨道中心:
EARTH
卫星名称:
星链-5381
卫星全名:
星链-5381 (STARLINK-5381 )
卫星状态:
在轨 (已飞行1089 天)
发射日期:
2022-12-28 UTC
国别 :
美国 (US)
星等 :
--
轨道信息
数据来源 国际轨道数据 AOE轨道数据
星历时间 2025-12-20T23:08:23+0800
21小时前
查看轨道信息
2025-12-19T21:00:00+0800
2天前
查看轨道信息
半长轴 6937.219km 6937.189km
偏心率 0.0001402 0.0001608
轨道倾角 43.003° 43.004°
近地点辐角 264.402° 259.974°
升交点赤经 202.846° 208.766°
平近点角 95.667° 321.967°
近地点 558.109km 557.936km
远地点 560.055km 560.168km
周期 95.838分钟 95.837分钟
每日圈数 15.025355 15.025451
详细信息
固有亮度:
5
最大亮度:
2.5
卫星平台:
Starlink v1.5
覆盖范围:
全球
运营商:
太空探索技术公司
运营商所在国:
美国
制造商(研发单位):
太空探索技术公司
制造商所在国:
美国
使用方式:
暂无
卫星简介
星链(Starlink)计划是由太空探索技术公司(SpaceX)提出的一个巨型低轨卫星互联网星座项目,计划在2019年至2024年间在太空搭建由约1.2万颗卫星组成的“星链”网络,其中1584颗将部署在地球上空550千米处的近地轨道,并从2020年开始工作。该卫星仍在工作。
2D轨道图
3D轨道图
轨道高度分析图
轨道倾角分析图
轨道综合分析图
查看轨道综合分析图